CW5071 Weather Reports


time (UTC)temp
F
wind
direction
speed
knots
gust
knots
rain 1hr
in
rain 24hr
in
rain mn
in
humidity
%
barometer
mb
20260505125029 58 281 0.0 0.0 0.00 0.00 0.03 82 1005.1
20260505124530 58 281 0.0 0.0 0.00 0.00 0.03 83 1004.9
20260505124031 58 281 0.0 0.0 0.00 0.00 0.03 83 1004.9
20260505123528 58 281 0.0 0.0 0.00 0.00 0.03 83 1004.9
20260505123049 58 281 0.0 0.0 0.00 0.00 0.03 83 1004.4
20260505122547 58 281 0.9 0.0 0.00 0.00 0.03 84 1004.4
20260505122026 58 281 0.9 0.0 0.00 0.00 0.03 81 1004.4
20260505121530 58 276 0.0 0.0 0.00 0.00 0.03 86 1004.5
20260505121027 59 276 0.0 0.0 0.00 0.00 0.03 86 1004.5
20260505120550 59 276 0.0 0.0 0.00 0.00 0.03 86 1004.5
20260505120029 59 276 0.0 0.0 0.00 0.00 0.03 86 1004.5
20260505115530 59 276 0.0 0.0 0.00 0.00 0.03 86 1004.5
20260505115035 59 276 0.0 0.0 0.00 0.00 0.03 86 1004.5
20260505114536 59 276 0.0 0.0 0.00 0.00 0.03 87 1004.0
20260505114031 59 276 0.0 0.0 0.00 0.00 0.03 87 1004.0
20260505113530 60 276 0.9 0.0 0.00 0.00 0.03 87 1004.0
20260505113030 60 276 0.9 0.0 0.00 0.00 0.03 88 1003.4
20260505112552 60 271 0.9 0.0 0.00 0.00 0.03 88 1003.4
20260505112052 60 261 0.9 0.0 0.00 0.00 0.03 88 1003.4
20260505111548 60 160 0.0 0.0 0.00 0.00 0.03 88 1004.0
20260505111028 60 160 0.0 0.0 0.00 0.00 0.03 88 1004.0
20260505110548 60 160 0.0 0.0 0.00 0.00 0.03 88 1004.0
20260505102024 59 160 0.0 0.0 0.00 0.00 0.03 87 1003.5
20260505101525 60 160 0.0 0.0 0.00 0.00 0.03 86 1002.9
20260505101024 60 160 0.0 0.0 0.00 0.00 0.03 86 1002.9
20260505100525 60 160 0.0 0.0 0.00 0.00 0.03 86 1002.9
20260505100031 60 160 0.0 0.0 0.00 0.00 0.03 86 1002.8
20260505095532 60 160 0.0 0.0 0.00 0.00 0.03 85 1002.8
20260505095052 60 160 0.0 0.0 0.00 0.00 0.03 85 1002.8
20260505094552 60 160 0.0 0.0 0.00 0.00 0.03 84 1002.3
20260505094026 60 160 0.0 0.0 0.00 0.00 0.03 84 1002.3
20260505093526 60 160 0.0 0.0 0.00 0.00 0.03 83 1002.3
20260505093031 60 160 0.0 0.0 0.00 0.00 0.03 83 1001.0
20260505092533 60 160 0.0 0.0 0.00 0.00 0.03 84 1001.0
20260505092034 60 159 1.7 0.0 0.00 0.00 0.03 84 1001.0
20260505091536 61 92 2.6 0.0 0.00 0.00 0.03 85 1001.0
20260505091039 60 63 2.6 0.0 0.00 0.00 0.03 85 1002.3
20260505090524 61 105 1.7 0.0 0.00 0.00 0.02 86 1002.3
20260505090025 61 92 0.9 0.0 0.00 0.00 0.01 86 1003.6
20260505085528 61 42 0.0 0.0 0.00 0.00 0.01 86 1004.5
20260505085028 61 34 0.0 0.0 0.00 0.00 0.01 85 1004.5
20260505084550 62 34 0.0 0.0 0.00 0.00 0.01 84 1004.9
20260505084026 62 34 0.0 0.0 0.00 0.00 0.00 83 1004.9
20260505083547 62 34 0.0 0.0 0.00 0.00 0.00 82 1004.9
20260505083025 62 34 0.0 0.0 0.00 0.00 0.00 81 1004.7
20260505082525 62 34 0.0 0.0 0.00 0.00 0.00 81 1004.7
20260505082026 63 34 0.0 0.0 0.00 0.00 0.00 79 1004.7
20260505081526 63 34 0.0 0.0 0.00 0.00 0.00 78 1004.1
20260505081026 64 135 0.0 0.0 0.00 0.00 0.00 76 1004.1
20260505080529 64 135 0.0 0.0 0.00 0.00 0.00 74 1004.1
20260505080053 64 165 0.9 0.0 0.00 0.00 0.00 73 1004.2
20260505075535 65 55 0.9 0.0 0.00 0.00 0.00 71 1004.2
20260505075036 65 138 0.0 0.0 0.00 0.00 0.00 69 1004.2
20260505074540 65 125 0.0 0.0 0.00 0.00 0.00 68 1004.2
20260505074021 65 215 0.9 0.0 0.00 0.00 0.00 67 1004.1
20260505073556 65 215 0.9 0.0 0.00 0.00 0.00 66 1004.1
20260505073036 65 184 0.0 0.0 0.00 0.00 0.00 66 1004.0
20260505072537 65 106 0.0 0.0 0.00 0.00 0.00 65 1004.0
20260505072056 65 131 0.0 0.0 0.00 0.00 0.00 65 1004.0
20260505071531 65 69 0.0 0.0 0.00 0.00 0.00 65 1003.7
20260505071036 65 23 0.0 0.0 0.00 0.00 0.00 65 1003.7
20260505070535 65 173 0.0 0.0 0.00 0.00 0.00 65 1003.7
20260505070037 65 68 0.9 0.0 0.00 0.00 0.00 64 1003.7
20260505065538 65 53 0.9 0.0 0.00 0.00 0.00 64 1004.1
20260505065038 65 55 0.9 0.0 0.00 0.00 0.00 65 1004.1
20260505064558 65 76 0.0 0.0 0.00 0.00 0.00 65 1004.1
20260505064040 65 75 0.0 0.0 0.00 0.00 0.00 65 1004.5
20260505063540 65 40 0.0 0.0 0.00 0.00 0.00 65 1004.5
20260505063023 65 101 0.0 0.0 0.00 0.00 0.00 65 1004.6
20260505062525 65 92 0.0 0.0 0.00 0.00 0.00 65 1004.6
20260505062025 65 355 0.0 0.0 0.00 0.00 0.00 65 1004.6
20260505061527 65 51 0.0 0.0 0.00 0.00 0.00 65 1004.7
20260505061021 65 75 0.0 0.0 0.00 0.00 0.00 65 1004.7
20260505060522 65 100 0.0 0.0 0.00 0.00 0.00 65 1004.7
20260505060027 65 44 0.0 0.0 0.00 0.00 0.00 65 1004.7
20260505055527 65 44 0.0 0.0 0.00 0.00 0.00 65 1004.7
20260505055029 65 44 0.0 0.0 0.00 0.00 0.00 65 1004.7
20260505054525 65 360 0.0 0.0 0.00 0.00 0.00 65 1004.6
20260505054027 65 110 0.0 0.0 0.00 0.00 0.00 65 1004.6
20260505053524 65 110 0.0 0.0 0.00 0.00 0.00 65 1004.6
20260505053027 65 110 0.0 0.0 0.00 0.00 0.00 65 1004.7
20260505052527 65 89 0.0 0.0 0.00 0.00 0.00 65 1004.7
20260505052028 65 89 0.0 0.0 0.00 0.00 0.00 65 1004.7
20260505051525 65 59 0.0 0.0 0.00 0.00 0.00 65 1004.7
20260505051024 65 58 0.0 0.0 0.00 0.00 0.00 65 1004.7
20260505050525 65 58 0.0 0.0 0.00 0.00 0.00 65 1004.7
20260505041529 65 75 0.0 0.0 0.00 0.00 0.00 65 1005.6
20260505041053 66 38 0.0 0.0 0.00 0.00 0.00 64 1005.6
20260505040552 66 38 0.0 0.0 0.00 0.00 0.00 64 1005.6
20260505040030 66 38 0.0 0.0 0.00 0.00 0.00 63 1005.8
20260505035551 66 38 0.0 0.0 0.00 0.00 0.00 63 1005.8
20260505035029 66 38 0.0 0.0 0.00 0.00 0.00 63 1005.8
20260505034530 66 38 0.0 0.0 0.00 0.00 0.00 63 1005.8
20260505034030 66 38 0.0 0.0 0.00 0.00 0.00 63 1005.8
20260505033530 66 38 0.0 0.0 0.00 0.00 0.00 63 1005.8
20260505033032 67 38 0.0 0.0 0.00 0.00 0.00 62 1005.8
20260505032538 67 38 0.0 0.0 0.00 0.00 0.00 62 1005.8
20260505032058 68 38 0.0 0.0 0.00 0.00 0.00 60 1005.8
20260505031538 68 38 0.0 0.0 0.00 0.00 0.00 60 1005.8
20260505031037 68 38 0.0 0.0 0.00 0.00 0.00 58 1004.9
20260505030536 68 38 0.0 0.0 0.00 0.00 0.00 58 1004.9
20260505030037 68 38 0.0 0.0 0.00 0.00 0.00 58 1004.7
20260505025557 68 38 0.0 0.0 0.00 0.00 0.00 58 1004.7
20260505025053 68 38 0.0 0.0 0.00 0.00 0.00 58 1004.7
20260505024533 68 42 0.0 0.0 0.00 0.00 0.00 58 1004.5
20260505024033 68 42 0.0 0.0 0.00 0.00 0.00 58 1004.5
20260505023533 68 42 0.0 0.0 0.00 0.00 0.00 58 1004.5
20260505023032 69 42 0.0 0.0 0.00 0.00 0.00 59 1004.2
20260505022548 68 42 0.0 0.0 0.00 0.00 0.00 58 1004.2
20260505022026 68 42 0.0 0.0 0.00 0.00 0.00 58 1004.2
20260505021531 68 42 0.0 0.0 0.00 0.00 0.00 58 1004.2
20260505021035 68 42 0.0 0.0 0.00 0.00 0.00 58 1004.2
20260505020538 68 42 0.0 0.0 0.00 0.00 0.00 59 1004.2
20260505020038 69 42 0.0 0.0 0.00 0.00 0.00 58 1004.1
20260505015533 69 42 0.0 0.0 0.00 0.00 0.00 58 1004.1
20260505015038 69 42 0.0 0.0 0.00 0.00 0.00 58 1004.1
20260505014522 69 42 0.0 0.0 0.00 0.00 0.00 57 1003.7
20260505014025 70 42 0.0 0.0 0.00 0.00 0.00 56 1003.7
20260505013527 70 42 0.0 0.0 0.00 0.00 0.00 56 1003.7
20260505013027 70 42 0.0 0.0 0.00 0.00 0.00 55 1003.5
20260505012527 70 42 0.0 0.0 0.00 0.00 0.00 56 1003.5
20260505012023 71 42 0.0 0.0 0.00 0.00 0.00 53 1003.5
20260505011548 71 42 0.0 0.0 0.00 0.00 0.00 53 1003.5
20260505011053 71 42 0.0 0.0 0.00 0.00 0.00 53 1003.5
20260505010540 72 38 0.0 0.0 0.00 0.00 0.00 52 1003.5
20260505010045 72 50 0.0 0.0 0.00 0.00 0.00 51 1003.5
20260505005524 72 50 0.0 0.0 0.00 0.00 0.00 50 1003.5
20260505005030 73 50 0.0 0.0 0.00 0.00 0.00 50 1003.5
20260505004532 73 50 0.0 0.0 0.00 0.00 0.00 49 1003.1
20260505004035 73 54 0.0 0.0 0.00 0.00 0.00 46 1003.1
20260505003537 73 54 0.0 0.0 0.00 0.00 0.00 47 1003.1
20260505003024 74 109 0.0 0.0 0.00 0.00 0.00 46 1003.0
20260505002530 74 109 0.0 0.0 0.00 0.00 0.00 44 1003.0
20260505002053 75 109 0.0 0.0 0.00 0.00 0.00 46 1003.0
20260505001537 75 109 0.0 0.0 0.00 0.00 0.00 44 1003.2
20260505001022 75 109 0.0 0.0 0.00 0.00 0.00 41 1003.2
20260505000526 76 109 0.0 0.0 0.00 0.00 0.00 42 1003.2
20260505000051 76 148 0.0 0.0 0.00 0.00 0.00 41 1003.1
20260504235535 76 27 0.9 0.0 0.00 0.00 0.00 40 1003.1
20260504235021 76 52 0.9 0.0 0.00 0.00 0.00 39 1003.1
20260504234526 77 57 0.9 0.0 0.00 0.00 0.00 40 1003.0
20260504234031 77 83 0.9 0.0 0.00 0.00 0.00 38 1003.0
20260504233536 77 49 0.0 0.0 0.00 0.00 0.00 38 1003.0
20260504233018 78 71 0.9 0.0 0.00 0.00 0.00 38 1003.0
20260504232526 78 153 0.9 0.0 0.00 0.00 0.00 38 1003.0
20260504232030 79 75 0.9 0.0 0.00 0.00 0.00 39 1003.0
20260504231532 79 66 0.0 0.0 0.00 0.00 0.00 38 1003.0
20260504231057 79 90 0.9 0.0 0.00 0.00 0.00 37 1003.0
20260504230522 79 157 0.9 0.0 0.00 0.00 0.00 38 1003.0
20260504230047 79 68 0.9 0.0 0.00 0.00 0.00 37 1003.0
20260504225531 79 204 0.9 0.0 0.00 0.00 0.00 36 1003.0
20260504225036 80 194 0.0 0.0 0.00 0.00 0.00 38 1003.0
20260504224541 80 128 0.9 0.0 0.00 0.00 0.00 36 1003.0
20260504224026 80 29 0.9 0.0 0.00 0.00 0.00 35 1003.0
20260504223533 80 76 0.9 0.0 0.00 0.00 0.00 37 1003.0
20260504223037 80 75 0.9 0.0 0.00 0.00 0.00 35 1003.0
20260504222541 80 26 0.9 0.0 0.00 0.00 0.00 34 1003.0
20260504222030 80 304 0.9 0.0 0.00 0.00 0.00 35 1003.0
20260504221533 80 92 1.7 0.0 0.00 0.00 0.00 36 1003.1
20260504221022 80 200 1.7 0.0 0.00 0.00 0.00 35 1003.1
20260504220524 80 277 0.9 0.0 0.00 0.00 0.00 34 1003.1
20260504220032 79 32 1.7 0.0 0.00 0.00 0.00 36 1003.2
20260504215601 79 132 0.9 0.0 0.00 0.00 0.00 38 1003.2
20260504215025 79 69 1.7 0.0 0.00 0.00 0.00 39 1003.2
20260504214528 80 249 0.9 0.0 0.00 0.00 0.00 37 1003.5
20260504214035 80 59 0.9 0.0 0.00 0.00 0.00 35 1003.5
20260504213557 79 148 0.9 0.0 0.00 0.00 0.00 35 1003.5
20260504213058 80 265 0.9 0.0 0.00 0.00 0.00 37 1003.5
20260504212523 80 105 1.7 0.0 0.00 0.00 0.00 37 1003.6
20260504212030 80 69 1.7 0.0 0.00 0.00 0.00 36 1003.6
20260504211537 80 340 0.9 0.0 0.00 0.00 0.00 34 1003.6
20260504211021 80 38 1.7 0.0 0.00 0.00 0.00 36 1003.8
20260504210541 81 171 1.7 0.0 0.00 0.00 0.00 36 1003.8
20260504210052 80 219 1.7 0.0 0.00 0.00 0.00 36 1004.0
20260504205555 81 9 0.9 0.0 0.00 0.00 0.00 35 1004.0
20260504205040 81 119 0.9 0.0 0.00 0.00 0.00 38 1004.0
20260504204525 80 44 1.7 0.0 0.00 0.00 0.00 35 1004.2
20260504204028 80 113 1.7 0.0 0.00 0.00 0.00 35 1004.2
20260504203531 80 217 1.7 0.0 0.00 0.00 0.00 36 1004.2
20260504203032 80 10 1.7 0.0 0.00 0.00 0.00 35 1004.4
20260504202536 80 91 1.7 0.0 0.00 0.00 0.00 38 1004.4
20260504202039 80 107 1.7 0.0 0.00 0.00 0.00 35 1004.4
20260504201547 80 95 1.7 0.0 0.00 0.00 0.00 36 1004.5
20260504201030 80 24 1.7 0.0 0.00 0.00 0.00 37 1004.5
20260504200538 80 355 2.6 0.0 0.00 0.00 0.00 35 1004.5
20260504200036 80 145 0.9 0.0 0.00 0.00 0.00 37 1004.6
20260504195524 80 323 0.9 0.0 0.00 0.00 0.00 38 1004.6
20260504195030 80 230 1.7 0.0 0.00 0.00 0.00 38 1004.6
20260504194536 79 57 1.7 0.0 0.00 0.00 0.00 37 1004.6
20260504194039 79 194 1.7 0.0 0.00 0.00 0.00 39 1004.6
20260504193524 79 259 1.7 0.0 0.00 0.00 0.00 37 1004.6
20260504193031 79 19 1.7 0.0 0.00 0.00 0.00 38 1004.8
20260504192522 79 230 1.7 0.0 0.00 0.00 0.00 38 1004.8
20260504192021 80 59 1.7 0.0 0.00 0.00 0.00 37 1004.8
20260504191547 80 254 1.7 0.0 0.00 0.00 0.00 37 1004.6
20260504191030 79 226 2.6 0.0 0.00 0.00 0.00 35 1005.5
20260504190536 80 200 1.7 0.0 0.00 0.00 0.00 38 1005.5
20260504190031 80 295 1.7 0.0 0.00 0.00 0.00 38 1005.6
20260504185552 79 90 1.7 0.0 0.00 0.00 0.00 38 1004.7
20260504185019 79 74 1.7 0.0 0.00 0.00 0.00 38 1004.7
20260504184524 79 114 2.6 0.0 0.00 0.00 0.00 38 1005.0
20260504184029 79 32 2.6 0.0 0.00 0.00 0.00 35 1005.0
20260504183535 79 114 2.6 0.0 0.00 0.00 0.00 37 1005.0
20260504183039 79 146 1.7 0.0 0.00 0.00 0.00 39 1005.0
20260504182523 79 54 1.7 0.0 0.00 0.00 0.00 38 1004.6
20260504182028 79 94 1.7 0.0 0.00 0.00 0.00 37 1004.6
20260504181532 79 306 1.7 0.0 0.00 0.00 0.00 40 1004.9
20260504181039 79 239 1.7 0.0 0.00 0.00 0.00 38 1004.9
20260504180525 79 88 1.7 0.0 0.00 0.00 0.00 41 1004.9
20260504180031 78 42 3.5 0.0 0.00 0.00 0.00 41 1005.0
20260504175559 79 11 3.5 0.0 0.00 0.00 0.00 39 1005.0
20260504175045 79 91 2.6 0.0 0.00 0.00 0.00 42 1005.0
20260504174529 79 41 2.6 0.0 0.00 0.00 0.00 40 1005.1
20260504174057 79 44 1.7 0.0 0.00 0.00 0.00 40 1005.1
20260504173539 79 203 1.7 0.0 0.00 0.00 0.00 38 1005.1
20260504173024 79 132 1.7 0.0 0.00 0.00 0.00 39 1005.2
20260504172528 79 34 0.9 0.0 0.00 0.00 0.00 41 1005.2
20260504172025 79 62 1.7 0.0 0.00 0.00 0.00 39 1005.2
20260504171531 78 165 1.7 0.0 0.00 0.00 0.00 43 1005.3
20260504171040 78 110 1.7 0.0 0.00 0.00 0.00 42 1005.3
20260504170523 79 59 1.7 0.0 0.00 0.00 0.00 37 1005.3
20260504151039 73 111 0.9 0.0 0.00 0.00 0.00 45 1006.6
20260504150527 73 105 1.7 0.0 0.00 0.00 0.00 44 1006.6
20260504141034 68 199 1.7 0.0 0.00 0.00 0.00 48 1007.6
20260504140535 67 63 1.7 0.0 0.00 0.00 0.00 48 1007.6
20260504130551 64 82 0.9 0.0 0.00 0.00 0.00 54 1007.6